www.pogodaiklimat.ru

Погода и климат >> Архив погоды >> Оман >> Эль-Хасаб


ПОГОДА в Эль-Хасабе

  • Прогноз погоды в Эль-Хасабе
  • Монитор погоды в Эль-Хасабе

АРХИВ ПОГОДЫ в Эль-Хасабе

Время (UTC), дата Ветер
(напр.,м/с)
 
Видим.   Явления Облачность Т
(С)
Тd
(С)
f
(%)
Тe
(С)
Тes
(С)
Комфортность P
(гПа)
Po
(гПа)
Тmin
(С)
Tmax
(С)
R
(мм)
R24
(мм)
S
(см)
09 19.03 штиль 0 н/о н/о +22.9 +10.3 45 +25 +25 комфорт 1014.3 1012.8
12 19.03 штиль 0 н/о н/о +22.9 +10.3 45 +25 +25 комфорт 1012.4 1011.0
15 19.03 штиль 0 н/о н/о +21.6 +9.7 47 +23 +23 комфорт 1012.9 1011.5
18 19.03 штиль 0 н/о н/о +21.8 +6.1 36 +22 +22 комфорт 1013.6 1012.2 +23.3
21 19.03 штиль 0 н/о н/о +20.6 +8.0 44 +22 +22 комфорт 1012.7 1011.2
00 20.03 штиль 0 н/о н/о +19.5 +9.8 53 +20 +20 1011.6 1010.2
03 20.03 штиль 0 н/о н/о +17.8 +10.4 62 +18 +18 1012.9 1011.5
06 20.03 штиль 0 н/о н/о +23.5 +10.4 44 +25 +25 комфорт 1014.3 1012.9 +17.6
09 20.03 штиль 0 н/о н/о +22.5 +12.8 54 +25 +25 комфорт 1012.9 1011.4
12 20.03 штиль 0 н/о н/о +23.3 +13.5 54 +27 +27 душно 1010.4 1009.0
15 20.03 штиль 0 н/о н/о +22.2 +12.5 54 +25 +25 комфорт 1011.5 1010.1
18 20.03 штиль 0 н/о н/о +21.6 +13.8 61 +24 +24 комфорт 1012.7 1011.2 +24.3
21 20.03 штиль 0 н/о н/о +21.3 +14.4 65 +24 +24 комфорт 1012.3 1010.9
00 21.03 штиль 0 н/о н/о +21.0 +13.1 61 +23 +23 комфорт 1011.5 1010.0
03 21.03 штиль 0 н/о н/о +19.9 +14.3 70 +22 +22 комфорт 1012.7 1011.3
06 21.03 штиль 0 н/о н/о +23.2 +13.9 56 +27 +27 душно 1014.7 1013.3 +19.9
09 21.03 штиль 0 н/о н/о +23.4 +15.2 60 +28 +28 душно 1013.9 1012.5
12 21.03 штиль 0 н/о н/о +24.3 +15.6 58 +27 +27 жарко 1012.4 1011.0
15 21.03 штиль 0 н/о н/о +22.7 +16.0 66 +27 +27 душно 1013.2 1011.8
18 21.03 штиль 0 н/о н/о +22.4 +17.3 73 +27 +27 душно 1014.0 1012.6 +25.1
21 21.03 штиль 0 н/о н/о +23.0 +15.5 63 +27 +27 душно 1013.3 1011.9
00 22.03 штиль 0 н/о н/о +24.3 +12.5 48 +26 +26 жарко 1012.0 1010.6
03 22.03 штиль 0 н/о н/о +23.9 +16.7 64 +27 +27 жарко 1014.0 1012.6
06 22.03 штиль 0 н/о н/о +24.1 +17.2 65 +28 +28 душно 1017.1 1015.7 +21.8
09 22.03 штиль 0 н/о н/о +24.8 +17.5 64 +29 +29 душно 1015.8 1014.4
12 22.03 штиль 0 н/о н/о +24.9 +12.8 47 +27 +27 жарко 1014.9 1013.5
15 22.03 штиль 0 н/о н/о +25.2 +13.7 49 +27 +27 жарко 1015.3 1013.9
18 22.03 штиль 0 н/о н/о +24.0 +14.7 56 +27 +27 жарко 1015.6 1014.1 +26.5 0.4
21 22.03 штиль 0 н/о н/о +23.5 +13.5 53 +26 +26 жарко 1014.3 1012.9
00 23.03 штиль 0 н/о н/о +24.3 +12.6 48 +26 +26 жарко 1013.5 1012.1 1
03 23.03 штиль 0 н/о н/о +24.0 +13.3 51 +26 +26 жарко 1015.3 1013.9
06 23.03 штиль 0 н/о н/о +24.2 +12.5 48 +26 +26 жарко 1017.0 1015.6 +22.6
09 23.03 штиль 0 н/о н/о +22.0 +14.6 63 +25 +25 комфорт 1018.0 1016.5
12 23.03 штиль 0 н/о н/о +22.4 +12.6 54 +25 +25 комфорт 1015.2 1013.8 0.4
15 23.03 штиль 0 н/о н/о +22.9 +12.2 51 +26 +26 жарко 1015.1 1013.7
18 23.03 штиль 0 н/о н/о +23.2 +12.1 50 +26 +26 жарко 1014.9 1013.5 +24.8
21 23.03 штиль 0 н/о н/о +22.6 +13.9 58 +26 +26 жарко 1013.3 1011.8
00 24.03 штиль 0 н/о н/о +22.8 +15.0 61 +27 +27 душно 1010.6 1009.2 0.4
03 24.03 штиль 0 н/о н/о +24.4 +12.6 48 +26 +26 жарко 1012.5 1011.1
06 24.03 штиль 0 н/о н/о +24.3 +15.9 59 +27 +27 жарко 1012.4 1011.0 +22.6
09 24.03 штиль 0 н/о н/о +24.9 +16.4 59 +28 +28 жарко 1012.5 1011.1
12 24.03 штиль 0 н/о н/о +24.1 +15.8 60 +27 +27 жарко 1011.0 1009.5
15 24.03 штиль 0 н/о н/о +24.1 +15.5 59 +27 +27 жарко 1011.2 1009.8
18 24.03 штиль 0 н/о н/о +26.8 +13.3 43 +29 +29 жарко 1011.7 1010.3 +26.8
21 24.03 штиль 0 н/о н/о +27.4 +10.8 35 +28 +28 жарко 1010.9 1009.5
00 25.03 штиль 0 н/о н/о +25.8 +13.3 46 +28 +28 жарко 1010.4 1009.0
03 25.03 штиль 0 н/о н/о +25.0 +16.1 58 +28 +28 жарко 1011.8 1010.4
06 25.03 штиль 0 н/о н/о +25.2 +17.7 63 +29 +29 душно 1013.1 1011.6 +24.9
09 25.03 штиль 0 н/о н/о +25.3 +17.6 62 +29 +29 душно 1013.4 1011.9
12 25.03 штиль 0 н/о н/о +25.2 +18.0 64 +30 +30 душно 1011.2 1009.8
15 25.03 штиль 0 н/о н/о +25.9 +16.5 56 +29 +29 душно 1011.1 1009.7
18 25.03 штиль 0 н/о н/о +26.4 +15.0 50 +29 +29 жарко 1012.3 1010.9 +26.9
21 25.03 штиль 0 н/о н/о +24.1 +18.8 72 +29 +29 душно 1010.4 1009.0
00 26.03 штиль 0 н/о н/о +24.4 +18.2 68 +29 +29 душно 1010.3 1008.9
03 26.03 штиль 0 н/о н/о +24.8 +17.7 65 +29 +29 душно 1013.5 1012.1
06 26.03 штиль 0 н/о н/о +27.1 +15.8 50 +30 +30 душно 1013.7 1012.3 +24.0

 

Местоположение метеостанции Эль-Хасаб (Оман): широта 26.21 долгота 56.24 высота над уровнем моря 4 м.

В архиве по умолчанию представлена погода в Эль-Хасабе за последнюю неделю. Архивные данные за месяц целиком и за предыдущие месяцы, начиная с января 2011 года, Вы можете получить, выбрав интересующий диапазон дат из раскрывающегося списка и нажав кнопку "Ввод!".


*Определитесь, кто Вы:
робот инопланетянин человек

Внимание! Время в таблицах - всемирное. Для получения местного времени необходимо прибавить поправку, которая равна 4 ч.

Смотрите также архив погоды в соседних городах и на ближайших метеорологических станциях:

Погода в Эль-Хасаб аэропорту (Оман) (5 км)
Погода в Дибе (Оман) (66 км)
Погода в Рай-эль-Хайма аэропорту (ОАЭ) (73 км)
Погода в Бендер-Аббасе (Иран) (113 км)
Погода в Шардже (ОАЭ) (122 км)
Погода в Фуджейре (ОАЭ) (124 км)
Погода в Дубае (ОАЭ) (140 км)
Погода в Бендер-Ленге (Иран) (146 км)
Погода на Острове Абу-Муса (Иран) (147 км)
Погода в Джаске (Иран) (166 км)

Пояснения к столбцам:

Ветер - указаны скорость ветра в м/с - средняя за 10 мин, порывы в срок и между сроками (в фигурных скобках) и направление, откуда дует ветер: С - северный, СВ - северо-восточный, В - восточный, ЮВ - юго-восточный, Ю - южный, ЮЗ - юго-западный, З - западный, СЗ - северо-западный.
Видимость - горизонтальная дальность видимости в метрах или километрах. При видимости от 1 до 10 км при отсутствии осадков обычно наблюдается дымка, при ухудшении видимости до 1 км и менее - туман. В сухую погоду видимость может ухудшаться дымом, пылью или мглою.
Явления - указаны атмосферные явления, наблюдавшиеся в срок или в последний час перед сроком; фигурными скобками обозначены явления, наблюдавшиеся между сроками (за 1-3 часа до срока); квадратными скобками обозначены град или гололедные отложения с указанием их диаметра в мм.
Облачность - указаны через наклонную черту общая и нижняя облачность в баллах и высота нижней границы облаков в метрах; квадратными скобками обозначены формы облаков: Ci - перистые, Cs - перисто-слоистые, Cc - перисто-кучевые, Ac - высококучевые, As - высокослоистые, Sc - слоисто-кучевые, Ns - слоисто-дождевые, Cu - кучевые, Cb - кучево-дождевые. Подробнее классификацию облаков см. в Атласе облаков (PDF).
T - Температура воздуха - температура, измеренная на высоте 2 м над землей.
Td - Температура точки росы - температура, при понижении до которой содержащийся в воздухе водяной пар достигнет насыщения.
f - Относительная влажность воздуха - влажноcть воздуха, измеренная на высоте 2 м над землей.
Te - Эффективная температура - температура, которую ощущает одетый по сезону человек в тени. Характеристика душности погоды. При расчете учитывается влияние влажности воздуха и скорости ветра на теплоощущения человека.
Tes - Эффективная температура на солнце - температура, которую ощущает человек, с поправкой на солнечный нагрев. Характеристика знойности погоды. Зависит от высоты солнца над горизонтом, облачности и скорости ветра. Ночью, в пасмурную погоду, а также при ветре 12 м/с и более поправка равна нулю.
P - Атмосферное давление - приведенное к уровню моря атмосферное давление.
Po - Атмосферное давление - измеренное на уровне метеостанции атмосферное давление.
Tmin - Минимальная температура - минимум температуры воздуха на высоте 2 м над землей.
Tmax - Максимальная температура - максимум температуры воздуха на высоте 2 м над землей.
R - Количество осадков - Количество выпавших осадков за период времени, мм. При наведении курсора мыши на число - период времени, за который выпало указанное количество осадков.
R24 - Количество осадков - Количество выпавших осадков за 24 часа, мм.
S - Снежный покров - Высота снежного покрова, см. При наведении курсора мыши на число - состояние снежного покрова и степень покрытия местности в баллах.